RH
63 58 52 51 54 56 58 61 58 55 56 55 53 56 60 62 64 66 67 66 77 79 87 88 84 67 72 75 77 88 92 91 85 77 75 73 78 76
74 70 66 67 67 65 68 72 74 72 70 69 67 66 67 66 66 73 86 99 100 96 98 98 100 98 93 93 100 93 91 81 76 77 69 63 62 65
60 61 73 70 67 74 82 86 88 92 90 86 83 80 74 72 74 84 93 92 88 81 73 81 92 96 88 78 75 74 74 65 66 67 65 60 60 60
90 72 70 73 74 70 69 75 79 83 84 86 86 91 98 100 100 97 95 85 75 88 99 96 79 77 85 82 78 81 88 76 61 70 58 58 58 57
67 73 74 75 81 84 86 86 81 77 76 76 86 93 97 100 98 85 80 89 99 87 67 71 73 69 72 74 76 70 73 74 58 67 56 50 47 48
72 69 72 69 68 70 82 88 83 83 90 98 91 79 76 80 81 81 74 63 64 67 68 65 57 56 76 66 57 59 56 59 54 44 46 48 50 56
97 92 85 87 81 84 93 95 92 90 81 81 84 81 81 80 76 73 73 72 73 73 71 88 78 59 72 66 56 57 52 51 61 62 46 48 49 51
74 86 97 100 89 84 95 92 88 89 85 80 91 93 91 87 90 92 91 91 70 96 89 73 70 65 61 61 55 54 51 48 48 46 44 46 53 49
99 99 76 77 77 86 82 81 81 84 97 90 90 89 80 92 70 77 77 71 68 66 70 67 64 58 53 48 45 42 43 43 46 47 40 34 34 38
98 100 98 92 88 88 86 81 80 81 83 83 82 83 67 58 55 53 56 53 63 66 61 57 53 45 52 49 47 48 46 41 35 38 38 38 37 34
100 100 100 100 100 100 92 93 79 96 80 76 69 65 63 67 66 60 71 58 60 57 54 44 56 52 49 44 44 37 32 36 38 37 33 32 32 32
100 100 100 100 99 100 89 75 68 74 73 71 75 73 71 74 67 57 56 56 62 56 57 58 52 44 45 37 37 36 35 32 31 32 32 30 29 30
100 100 100 100 99 100 100 96 92 97 82 79 84 76 74 66 70 57 63 63 64 67 61 46 45 36 33 38 41 36 33 33 31 30 28 28 28 27
100 100 100 96 91 94 93 83 70 87 88 78 79 72 74 64 67 69 68 68 72 56 43 36 34 37 38 38 36 34 32 30 30 28 26 23 22 23
98 100 100 89 91 93 95 100 92 81 81 77 78 77 71 78 75 74 75 66 49 40 36 36 36 38 36 34 34 32 30 28 24 24 24 25 26 28
100 99 98 96 94 88 85 92 84 86 82 77 95 90 84 78 82 71 51 43 38 38 38 39 36 35 34 31 30 29 28 30 30 26 30 31 32 30
100 99 99 98 99 96 90 91 83 91 94 82 84 93 86 71 52 43 37 39 40 41 37 33 33 32 30 31 32 31 32 32 30 33 29 27 28 27
100 100 100 95 91 84 90 97 87 86 97 99 87 66 48 42 39 40 40 41 40 38 36 31 29 29 32 35 33 35 30 26 27 28 27 27 30 28
100 100 100 98 95 94 97 99 95 85 67 50 44 42 38 40 41 40 39 41 38 33 33 33 34 34 32 38 31 26 26 28 26 26 25 27 29 31
62 65 64 67 70 67 60 52 46 44 44 42 41 41 41 42 43 42 39 36 36 37 41 38 33 35 29 33 36 35 25 25 24 26 27 25 24 27
40 41 43 44 44 46 47 45 42 41 42 42 41 42 41 40 40 38 38 40 42 41 41 38 30 31 32 32 35 36 37 31 28 30 28 23 20 21
45 44 43 43 43 44 42 41 42 43 41 42 40 41 40 41 44 45 44 42 42 39 36 38 36 33 32 32 34 37 40 36 25 19 18 18 18 20
43 44 44 45 44 43 43 43 42 42 42 43 43 45 45 46 46 46 45 42 39 39 36 38 37 35 36 36 36 31 29 28 25 25 24 15 14 13
Wind_Speed
52 52 52 53 51 51 52 52 53 55 56 56 57 58 58 59 61 63 65 66 67 69 72 73 75 76 79 81 83 85 87 89 90 91 91 92 91 91
61 56 56 57 56 57 57 58 59 60 61 61 62 63 65 66 67 69 70 73 75 77 78 80 82 84 86 88 90 92 94 96 98 98 99 100 100 100
64 62 63 63 63 63 63 65 66 66 67 68 68 69 71 72 73 75 77 79 82 84 86 88 90 92 94 97 99 100 101 102 103 105 105 107 107 108
79 78 74 72 70 70 70 71 72 73 74 74 75 77 79 80 82 85 86 89 91 92 94 97 98 100 102 104 106 106 107 110 111 112 114 114 116 116
80 81 82 80 79 77 77 77 78 80 80 82 83 85 87 89 91 93 95 96 97 101 103 104 106 108 109 110 112 114 115 116 118 119 120 121 123 122
85 85 87 86 86 84 85 87 87 88 89 90 92 93 95 97 99 101 103 104 107 109 111 112 113 114 116 116 119 121 123 125 126 128 128 128 132 130
93 91 92 93 93 93 95 96 96 98 98 99 100 102 104 106 107 108 109 111 113 115 115 116 119 120 120 123 126 127 129 130 127 129 135 135 133 131
100 100 100 101 101 101 102 103 103 104 106 107 108 109 110 111 113 115 116 117 118 119 122 124 125 126 128 131 131 134 137 138 135 135 137 134 128 124
106 108 108 108 107 108 109 109 110 110 111 113 113 115 116 117 121 120 121 124 126 125 126 129 130 132 136 140 143 143 141 137 130 125 123 120 117 113
112 113 114 113 114 114 115 116 116 117 118 120 120 122 124 125 125 126 129 130 130 131 133 134 137 140 138 136 131 126 123 121 117 114 111 109 108 107
120 119 120 120 120 119 120 121 121 122 123 123 123 123 124 125 127 128 130 133 134 136 136 138 137 135 132 127 123 119 116 113 110 108 107 106 104 103
123 124 123 123 126 125 125 125 125 125 127 126 126 127 129 128 132 135 135 137 135 138 138 135 132 125 122 120 118 114 112 109 108 106 105 104 104 103
127 126 127 128 130 130 129 130 129 130 131 130 131 131 134 136 134 139 138 139 138 137 134 129 124 119 114 112 113 112 109 108 107 107 104 103 103 102
131 132 131 132 134 134 133 135 135 134 135 134 138 137 137 141 139 141 140 138 137 131 125 120 116 113 111 110 108 109 108 107 106 106 105 104 105 105
136 134 134 135 136 137 137 136 137 137 141 139 139 142 141 141 142 142 139 131 127 123 119 115 111 109 108 107 106 109 106 108 108 106 105 105 105 104
137 137 138 139 140 141 140 141 142 140 142 142 142 142 142 143 140 134 127 123 119 117 114 110 108 107 107 106 106 107 107 106 106 105 104 105 109 112
138 140 141 142 142 144 144 144 144 142 142 142 142 142 139 133 128 123 119 116 114 113 111 107 105 104 104 105 105 104 103 104 104 107 109 108 108 107
142 143 143 143 145 146 145 143 142 142 139 135 133 130 125 121 119 116 113 111 110 109 109 107 105 102 100 102 102 106 109 107 105 104 102 98 98 102
142 144 144 143 140 138 136 133 130 127 126 123 121 119 117 114 112 111 109 108 107 106 106 105 104 102 103 107 108 108 102 100 98 98 95 93 91 93
126 127 124 120 119 121 121 120 119 117 116 115 113 111 109 108 108 108 106 105 104 104 104 106 107 107 105 101 100 102 103 98 95 92 91 90 90 90
110 110 111 111 110 111 112 111 110 109 108 107 107 106 105 104 104 104 103 103 103 105 107 108 106 102 99 97 95 95 97 97 93 92 90 88 87 85
103 103 104 104 104 104 104 104 103 104 103 103 102 101 101 100 101 102 103 104 106 105 103 102 101 98 96 92 91 91 93 93 93 90 88 87 84 81
98 98 98 99 100 100 99 99 98 98 99 99 99 99 100 101 103 103 103 103 101 99 98 96 94 92 91 91 89 87 86 87 87 87 90 89 85 81
Wind_Direction
252 256 256 256 257 259 261 263 263 265 266 266 265 266 268 269 272 275 277 279 280 282 284 283 284 286 287 288 289 290 291 291 291 290 289 289 288 287
251 256 259 259 260 261 262 263 265 266 267 268 270 271 273 276 276 277 279 281 282 283 283 284 285 285 286 287 287 288 288 288 289 289 289 288 287 287
253 258 262 261 261 262 264 265 266 267 268 270 271 272 273 274 276 277 278 279 280 280 282 283 285 285 285 286 287 287 287 287 288 288 287 287 287 286
261 264 265 264 263 263 264 266 268 269 270 272 274 275 276 278 278 279 280 281 281 284 285 284 285 286 287 287 287 288 288 287 290 289 288 287 288 287
260 263 265 266 266 266 267 268 269 270 272 273 275 276 276 277 278 279 280 282 282 282 284 285 286 287 287 287 286 287 288 287 287 287 285 285 287 286
261 262 264 266 268 269 270 271 271 272 273 274 274 275 277 277 278 279 280 282 283 284 285 285 286 287 287 287 288 286 288 288 287 287 287 285 286 285
265 266 267 268 270 271 272 272 273 274 275 277 277 278 278 279 280 281 281 282 283 286 287 286 285 287 288 286 287 287 287 290 288 286 284 286 285 283
266 267 267 266 267 269 270 272 273 273 275 277 278 279 280 281 281 282 284 284 286 286 285 286 286 286 287 287 289 287 287 287 286 282 282 285 285 284
266 267 267 269 270 270 271 272 274 276 276 277 278 279 281 282 282 285 284 284 284 286 286 286 286 288 287 287 287 287 286 286 286 285 284 284 284 284
266 267 268 269 270 271 272 273 274 275 276 277 278 279 280 282 283 283 283 285 285 285 286 288 288 289 290 288 289 289 288 287 288 288 287 286 285 285
267 268 270 271 272 272 272 273 274 274 275 277 278 279 281 283 283 286 285 285 286 287 288 289 291 292 292 291 290 290 290 289 289 288 287 287 286 286
267 269 271 272 273 274 275 276 278 278 278 279 280 281 282 286 285 286 288 289 289 290 292 293 294 292 292 292 291 291 290 289 289 289 288 287 287 287
268 269 271 271 274 275 276 276 278 279 280 282 282 285 284 285 289 289 291 291 293 293 292 292 292 292 291 291 290 290 290 290 290 289 288 288 287 287
267 269 272 272 273 276 277 278 280 281 281 284 283 286 288 288 290 291 293 293 293 293 292 292 291 291 291 290 290 291 290 290 289 289 289 289 289 288
267 270 271 272 274 275 277 278 279 282 281 284 286 286 289 290 291 291 292 292 291 291 291 291 291 290 290 290 291 291 291 291 290 291 291 290 289 288
266 269 270 272 273 275 277 277 279 282 282 284 286 287 287 289 290 290 289 290 290 289 289 289 290 290 291 292 291 291 291 290 291 292 291 290 290 290
267 269 270 272 273 274 277 278 280 283 282 284 285 286 287 287 287 288 288 287 288 288 289 289 289 291 291 291 291 290 290 290 290 290 289 290 290 289
266 269 271 272 272 274 277 279 279 281 282 283 283 284 285 285 285 286 286 287 287 288 289 291 291 291 291 290 290 290 290 291 291 291 290 290 290 289
266 268 270 272 274 274 276 277 278 278 279 281 281 282 283 284 285 286 286 287 288 289 290 290 291 291 292 292 293 292 291 291 290 290 290 290 290 289
266 267 269 270 271 272 273 275 276 277 278 279 280 281 283 284 285 286 286 287 288 289 290 290 291 292 293 292 292 293 293 292 292 292 292 292 291 291
266 267 269 270 271 272 273 275 276 277 278 279 280 281 282 284 284 285 286 287 288 289 290 291 291 292 292 293 292 292 292 293 293 293 293 292 292 293
267 268 269 270 271 271 273 275 276 277 278 279 280 281 282 284 284 286 286 287 288 289 290 290 291 292 292 292 292 292 292 294 293 294 294 292 292 292
266 267 268 269 270 271 272 274 276 277 278 280 281 282 283 284 284 286 286 287 288 289 289 290 290 290 291 291 292 293 294 292 293 294 295 295 294 293